CW8285 Weather Reports


Display with metric or nautical units.
time (UTC)temp
F
wind
direction
speed
MPH
gust
MPH
rain 1hr
in
rain 24hr
in
rain mn
in
humidity
%
barometer
mb
20220815074025 63 26 0.0 1.0 0.00 0.00 0.00 99 1014.0
20220815073524 63 312 0.0 0.0 0.00 0.00 0.00 99 1014.4
20220815073022 63 346 0.0 1.0 0.00 0.00 0.00 99 1014.2
20220815072522 63 2 0.0 0.0 0.00 0.00 0.00 99 1014.4
20220815072021 62 4 0.0 1.0 0.00 0.00 0.00 99 1014.3
20220815071520 62 39 0.0 1.0 0.00 0.00 0.00 99 1014.4
20220815071019 63 355 0.0 0.0 0.00 0.00 0.00 99 1014.4
20220815070518 63 16 1.0 1.0 0.00 0.00 0.00 99 1014.5
20220815070017 63 17 0.0 1.0 0.00 0.00 0.00 99 1014.4
20220815065516 63 43 1.0 1.0 0.00 0.00 0.00 99 1014.5
20220815065015 63 29 1.0 1.0 0.00 0.00 0.00 99 1014.8
20220815064513 63 298 0.0 0.0 0.00 0.00 0.00 99 1014.7
20220815064012 63 332 0.0 0.0 0.00 0.00 0.00 99 1015.1
20220815063510 63 340 0.0 0.0 0.00 0.00 0.00 99 1015.0
20220815063009 63 338 0.0 0.0 0.00 0.00 0.00 99 1014.8
20220815062508 63 327 0.0 0.0 0.00 0.00 0.00 99 1015.2
20220815062007 63 343 0.0 0.0 0.00 0.00 0.00 99 1015.3
20220815061507 63 333 0.0 0.0 0.00 0.00 0.00 99 1015.3
20220815061006 64 335 0.0 0.0 0.00 0.00 0.00 99 1015.3
20220815060505 64 335 0.0 0.0 0.00 0.00 0.00 99 1015.2
20220815060004 64 335 0.0 0.0 0.00 0.00 0.00 99 1015.3
20220815055504 64 337 0.0 0.0 0.00 0.00 0.00 99 1015.3
20220815055003 64 334 0.0 0.0 0.00 0.00 0.00 99 1015.5
20220815054502 64 332 0.0 0.0 0.00 0.00 0.00 99 1015.5
20220815054001 64 332 0.0 0.0 0.00 0.00 0.00 99 1015.6
20220815053500 64 332 0.0 0.0 0.00 0.00 0.00 99 1015.6
20220815052959 64 337 0.0 0.0 0.00 0.00 0.00 99 1015.8
20220815052459 64 342 0.0 0.0 0.00 0.00 0.00 99 1016.0
20220815051958 65 33 0.0 0.0 0.00 0.00 0.00 99 1015.9
20220815051457 65 37 0.0 0.0 0.00 0.00 0.00 99 1015.9
20220815050955 65 59 0.0 1.0 0.00 0.00 0.00 99 1015.9
20220815050454 65 318 0.0 0.0 0.00 0.00 0.00 99 1015.8
20220815045953 65 322 0.0 0.0 0.00 0.00 0.00 99 1016.0
20220815045453 65 321 0.0 0.0 0.00 0.00 0.00 99 1015.9
20220815044951 65 321 0.0 0.0 0.00 0.00 0.00 99 1015.8
20220815044449 65 321 0.0 0.0 0.00 0.00 0.00 99 1015.9
20220815043948 65 321 0.0 0.0 0.00 0.00 0.00 99 1015.9
20220815043447 65 328 0.0 0.0 0.00 0.00 0.00 99 1015.8
20220815042948 65 322 0.0 0.0 0.00 0.00 0.00 99 1015.9
20220815042446 65 321 0.0 0.0 0.00 0.00 0.00 99 1015.9
20220815041945 65 321 0.0 0.0 0.00 0.00 0.00 99 1016.1
20220815041444 65 322 0.0 0.0 0.00 0.00 0.00 99 1015.7
20220815040944 65 321 0.0 0.0 0.00 0.00 0.00 99 1015.7
20220815040443 65 323 0.0 0.0 0.00 0.00 0.00 99 1015.9
20220815035941 65 332 0.0 0.0 0.00 0.00 0.00 99 1015.9
20220815035440 65 333 0.0 0.0 0.00 0.00 0.00 99 1016.0
20220815034940 65 334 0.0 0.0 0.00 0.00 0.00 99 1015.7
20220815034439 64 331 0.0 0.0 0.00 0.00 0.00 99 1015.8
20220815033938 65 331 0.0 0.0 0.00 0.00 0.00 99 1015.9
20220815033437 65 7 0.0 0.0 0.00 0.00 0.00 99 1015.8
20220815032937 64 24 0.0 0.0 0.00 0.00 0.00 99 1015.7
20220815032435 64 344 0.0 0.0 0.00 0.00 0.00 99 1015.9
20220815031935 64 334 0.0 0.0 0.00 0.00 0.00 99 1016.4
20220815031435 64 331 0.0 0.0 0.00 0.00 0.00 99 1016.0
20220815030933 64 332 0.0 0.0 0.00 0.00 0.00 99 1016.1
20220815030433 64 344 0.0 0.0 0.00 0.00 0.00 99 1016.3
20220815025932 64 337 0.0 0.0 0.00 0.00 0.00 99 1016.3
20220815025432 65 330 0.0 0.0 0.00 0.00 0.00 99 1016.1
20220815024932 65 1 0.0 1.0 0.00 0.00 0.00 99 1016.1
20220815024430 65 359 0.0 0.0 0.00 0.00 0.00 98 1016.1
20220815023929 65 349 0.0 0.0 0.00 0.00 0.00 98 1016.1
20220815023428 65 56 0.0 1.0 0.00 0.00 0.00 98 1016.3
20220815022927 65 334 0.0 0.0 0.00 0.00 0.00 98 1016.5
20220815022427 65 13 0.0 0.0 0.00 0.00 0.00 98 1016.3
20220815021927 65 6 0.0 0.0 0.00 0.00 0.00 98 1016.6
20220815021427 65 28 0.0 1.0 0.00 0.00 0.00 98 1016.7
20220815020926 65 24 0.0 1.0 0.00 0.00 0.00 98 1016.3
20220815020425 65 74 0.0 0.0 0.00 0.00 0.00 98 1016.4
20220815015925 65 45 0.0 1.0 0.00 0.00 0.00 98 1016.4
20220815015425 66 45 0.0 1.0 0.00 0.00 0.00 98 1016.1
20220815014924 66 335 0.0 0.0 0.00 0.00 0.00 98 1016.0
20220815014424 66 331 0.0 0.0 0.00 0.00 0.00 97 1016.0
20220815013923 66 331 0.0 0.0 0.00 0.00 0.00 97 1015.8
20220815013423 66 327 0.0 0.0 0.00 0.00 0.00 97 1015.8
20220815012922 66 38 1.0 1.0 0.00 0.00 0.00 96 1015.8
20220815012421 67 7 0.0 0.0 0.00 0.00 0.00 96 1015.8
20220815011920 67 334 0.0 0.0 0.00 0.00 0.00 95 1015.8
20220815011420 67 73 0.0 0.0 0.00 0.00 0.00 95 1015.8
20220815010919 68 106 0.0 0.0 0.00 0.00 0.00 95 1016.0
20220815010419 68 106 0.0 0.0 0.00 0.00 0.00 95 1016.0
20220815005918 68 83 0.0 0.0 0.00 0.00 0.00 95 1015.9
20220815005417 68 106 0.0 0.0 0.00 0.00 0.00 94 1015.8
20220815004917 68 100 0.0 0.0 0.00 0.00 0.00 94 1015.6
20220815004417 68 95 0.0 0.0 0.00 0.00 0.00 95 1015.7
20220815003917 68 306 0.0 0.0 0.00 0.00 0.00 94 1015.6
20220815003415 69 308 0.0 0.0 0.00 0.00 0.00 94 1015.9
20220815002915 69 310 0.0 0.0 0.00 0.00 0.00 93 1015.6
20220815002414 69 310 0.0 0.0 0.00 0.00 0.00 93 1015.6
20220815001914 69 301 0.0 0.0 0.00 0.00 0.00 92 1015.6
20220815001413 70 306 0.0 0.0 0.00 0.00 0.00 91 1015.7
20220815000913 70 312 0.0 0.0 0.00 0.00 0.00 91 1016.0
20220815000413 70 333 0.0 0.0 0.00 0.00 0.00 91 1015.9
20220814235912 70 315 0.0 0.0 0.00 0.00 0.00 90 1015.7
20220814235411 70 10 0.0 0.0 0.00 0.00 0.00 90 1015.7
20220814234911 70 321 0.0 0.0 0.00 0.00 0.00 90 1015.6
20220814234410 70 317 0.0 0.0 0.00 0.00 0.00 89 1015.5
20220814233909 71 324 0.0 0.0 0.00 0.00 0.00 88 1015.5
20220814233407 71 325 0.0 0.0 0.00 0.00 0.00 89 1015.4
20220814232907 71 326 0.0 0.0 0.00 0.00 0.00 87 1015.4
20220814232406 72 316 0.0 0.0 0.00 0.00 0.00 87 1015.8
20220814231906 72 327 0.0 0.0 0.00 0.00 0.00 87 1015.7
20220814231405 72 315 0.0 0.0 0.00 0.00 0.00 86 1015.4
20220814230905 72 322 0.0 0.0 0.00 0.00 0.00 86 1015.3
20220814230404 72 332 0.0 0.0 0.00 0.00 0.00 87 1015.4
20220814225904 73 8 0.0 1.0 0.00 0.00 0.00 85 1015.5
20220814225403 73 312 0.0 0.0 0.00 0.00 0.00 85 1015.5
20220814224901 73 280 0.0 0.0 0.00 0.00 0.00 83 1015.6
20220814224400 73 319 0.0 0.0 0.00 0.00 0.00 82 1015.9
20220814223859 73 283 0.0 0.0 0.00 0.00 0.00 81 1015.9
20220814223359 73 314 0.0 0.0 0.00 0.00 0.00 81 1016.0
20220814222857 73 300 0.0 0.0 0.00 0.00 0.00 83 1016.0
20220814222357 74 326 1.0 1.0 0.00 0.00 0.00 82 1015.8
20220814221856 74 314 0.0 0.0 0.00 0.00 0.00 83 1016.1
20220814221355 74 340 0.0 0.0 0.00 0.00 0.00 80 1016.1
20220814220853 74 310 0.0 0.0 0.00 0.00 0.00 80 1016.1
20220814220353 75 316 1.0 1.0 0.00 0.00 0.00 79 1016.5
20220814215851 76 333 0.0 0.0 0.00 0.00 0.00 78 1016.0
20220814215351 76 295 0.0 1.0 0.00 0.00 0.00 79 1016.4
20220814214850 74 335 0.0 1.0 0.00 0.00 0.00 78 1016.3
20220814214350 75 298 0.0 1.0 0.00 0.00 0.00 77 1016.3
20220814213849 75 257 2.0 2.0 0.00 0.00 0.00 74 1016.7
20220814213348 75 338 0.0 2.0 0.00 0.00 0.00 75 1016.6
20220814212847 74 301 0.0 2.0 0.00 0.00 0.00 77 1016.6
20220814212346 75 345 0.0 1.0 0.00 0.00 0.00 79 1016.3
20220814211845 75 306 1.0 1.0 0.00 0.00 0.00 75 1016.5
20220814211344 74 297 0.0 1.0 0.00 0.00 0.00 76 1016.4
20220814210843 75 334 3.0 3.0 0.00 0.00 0.00 75 1016.1
20220814210344 74 343 0.0 3.0 0.00 0.00 0.00 75 1016.0
20220814204133 73 24 0.0 1.0 0.00 0.00 0.00 86 1016.3
20220814203632 73 24 0.0 1.0 0.00 0.00 0.00 86 1016.3
20220814203132 73 308 0.0 0.0 0.00 0.00 0.00 85 1016.1
20220814202631 73 320 0.0 0.0 0.00 0.00 0.00 82 1016.6
20220814202129 74 307 0.0 0.0 0.00 0.00 0.00 82 1016.6
20220814201629 74 319 0.0 0.0 0.00 0.00 0.00 80 1016.4
20220814201129 74 298 0.0 0.0 0.00 0.00 0.00 81 1016.3
20220814200627 75 289 1.0 2.0 0.00 0.00 0.00 74 1016.5
20220814200127 74 316 0.0 0.0 0.00 0.00 0.00 76 1016.7
20220814195625 74 316 0.0 0.0 0.00 0.00 0.00 79 1016.6
20220814195123 75 333 0.0 0.0 0.00 0.00 0.00 76 1016.7
20220814194622 76 301 0.0 0.0 0.00 0.00 0.00 70 1016.9
20220814194121 77 288 0.0 0.0 0.00 0.00 0.00 70 1016.8
20220814193620 78 312 0.0 1.0 0.00 0.00 0.00 66 1016.9
20220814193120 79 270 0.0 2.0 0.00 0.00 0.00 65 1017.0
20220814192620 78 202 0.0 1.0 0.00 0.00 0.00 61 1016.9
20220814192119 79 274 0.0 1.0 0.00 0.00 0.00 70 1016.9
20220814191619 79 293 0.0 0.0 0.00 0.00 0.00 64 1017.2
20220814191119 80 259 1.0 2.0 0.00 0.00 0.00 61 1017.0
20220814190618 79 262 1.0 2.0 0.00 0.00 0.00 61 1017.2
20220814190116 80 301 0.0 1.0 0.00 0.00 0.00 67 1017.2
20220814185615 80 285 0.0 2.0 0.00 0.00 0.00 60 1017.2
20220814185114 81 255 1.0 2.0 0.00 0.00 0.00 58 1017.4
20220814184614 80 246 2.0 2.0 0.00 0.00 0.00 65 1016.9
20220814184114 80 258 1.0 1.0 0.00 0.00 0.00 59 1017.2
20220814183613 79 282 0.0 1.0 0.00 0.00 0.00 69 1017.1
20220814183113 80 292 0.0 1.0 0.00 0.00 0.00 62 1017.4
20220814182613 79 259 1.0 1.0 0.00 0.00 0.00 62 1017.6
20220814182111 79 254 0.0 2.0 0.00 0.00 0.00 64 1017.6
20220814181610 80 270 1.0 2.0 0.00 0.00 0.00 67 1017.7
20220814181110 80 245 1.0 1.0 0.00 0.00 0.00 64 1017.9
20220814180608 80 260 1.0 2.0 0.00 0.00 0.00 67 1017.9
20220814180108 79 260 0.0 1.0 0.00 0.00 0.00 64 1017.7
20220814175607 79 279 0.0 2.0 0.00 0.00 0.00 65 1017.8
20220814175107 80 259 1.0 1.0 0.00 0.00 0.00 66 1017.7
20220814174605 79 221 0.0 1.0 0.00 0.00 0.00 60 1017.8
20220814174105 79 264 2.0 2.0 0.00 0.00 0.00 64 1017.8
20220814173603 78 190 2.0 2.0 0.00 0.00 0.00 66 1017.8
20220814173102 79 160 1.0 2.0 0.00 0.00 0.00 64 1018.0
20220814172601 78 209 1.0 2.0 0.00 0.00 0.00 66 1018.1
20220814172101 77 293 0.0 2.0 0.00 0.00 0.00 70 1018.2
20220814171600 77 258 1.0 2.0 0.00 0.00 0.00 68 1018.2
20220814171059 76 257 0.0 1.0 0.00 0.00 0.00 70 1018.1
20220814170558 75 317 0.0 2.0 0.00 0.00 0.00 68 1018.3
20220814170056 75 310 0.0 1.0 0.00 0.00 0.00 77 1018.1
20220814165555 75 273 0.0 0.0 0.00 0.00 0.00 74 1018.3
20220814165054 76 274 1.0 1.0 0.00 0.00 0.00 74 1018.1
20220814164552 76 252 0.0 1.0 0.00 0.00 0.00 73 1018.3
20220814164053 77 272 1.0 2.0 0.00 0.00 0.00 72 1018.3
20220814163552 75 223 0.0 1.0 0.00 0.00 0.00 70 1018.3
20220814163051 75 269 0.0 1.0 0.00 0.00 0.00 76 1018.3
20220814162551 75 249 0.0 1.0 0.00 0.00 0.00 71 1018.5
20220814162050 75 145 1.0 1.0 0.00 0.00 0.00 70 1018.6
20220814161550 74 341 1.0 2.0 0.00 0.00 0.00 73 1018.5
20220814161048 75 303 1.0 2.0 0.00 0.00 0.00 74 1018.5
20220814160547 75 254 0.0 0.0 0.00 0.00 0.00 76 1018.4
20220814160047 74 281 0.0 1.0 0.00 0.00 0.00 72 1018.5
20220814155547 74 261 1.0 2.0 0.00 0.00 0.00 75 1018.7
20220814155046 74 232 1.0 1.0 0.00 0.00 0.00 72 1018.6
20220814154545 74 238 0.0 1.0 0.00 0.00 0.00 76 1018.6
20220814154044 73 267 0.0 1.0 0.00 0.00 0.00 78 1019.1
20220814153542 73 254 0.0 1.0 0.00 0.00 0.00 76 1018.9
20220814153041 73 250 0.0 1.0 0.00 0.00 0.00 80 1019.0
20220814152540 73 268 1.0 1.0 0.00 0.00 0.00 79 1019.0
20220814152039 71 185 1.0 2.0 0.00 0.00 0.00 76 1018.9
20220814151538 71 249 1.0 1.0 0.00 0.00 0.00 81 1018.9
20220814151038 71 245 0.0 1.0 0.00 0.00 0.00 79 1019.0
20220814150537 71 293 0.0 1.0 0.00 0.00 0.00 79 1018.9
20220814150036 71 264 0.0 2.0 0.00 0.00 0.00 80 1018.9
20220814145536 70 253 0.0 1.0 0.00 0.00 0.00 77 1018.9
20220814145036 70 295 0.0 1.0 0.00 0.00 0.00 79 1018.9
20220814144535 70 260 0.0 1.0 0.00 0.00 0.00 79 1019.0
20220814144035 70 262 0.0 2.0 0.00 0.00 0.00 78 1018.9
20220814143534 69 259 0.0 1.0 0.00 0.00 0.00 82 1019.0
20220814143033 69 251 0.0 0.0 0.00 0.00 0.00 78 1019.0
20220814142534 69 258 0.0 1.0 0.00 0.00 0.00 78 1019.2
20220814142033 69 247 0.0 1.0 0.00 0.00 0.00 78 1019.1
20220814141532 68 259 0.0 0.0 0.00 0.00 0.00 82 1018.9
20220814141032 68 296 0.0 1.0 0.00 0.00 0.00 85 1019.1
20220814140532 68 281 0.0 0.0 0.00 0.00 0.00 87 1019.0
20220814140031 68 265 0.0 0.0 0.00 0.00 0.00 85 1019.3
20220814135531 68 269 0.0 0.0 0.00 0.00 0.00 83 1018.9
20220814135029 68 262 0.0 1.0 0.00 0.00 0.00 85 1018.9
20220814134528 67 265 0.0 0.0 0.00 0.00 0.00 86 1018.7
20220814134028 66 278 0.0 0.0 0.00 0.00 0.00 87 1018.6
20220814133526 66 266 0.0 0.0 0.00 0.00 0.00 88 1018.7
20220814133026 65 266 0.0 0.0 0.00 0.00 0.00 90 1018.9
20220814132525 65 294 0.0 1.0 0.00 0.00 0.00 91 1018.7
20220814132024 64 295 0.0 1.0 0.00 0.00 0.00 93 1018.6
20220814131523 64 289 0.0 0.0 0.00 0.00 0.00 94 1018.9
20220814131022 63 285 0.0 0.0 0.00 0.00 0.00 96 1018.7
20220814130521 63 279 0.0 0.0 0.00 0.00 0.00 98 1019.0
20220814130020 63 271 0.0 0.0 0.00 0.00 0.00 98 1019.1
20220814125519 62 270 0.0 0.0 0.00 0.00 0.00 98 1019.1
20220814125019 62 288 0.0 0.0 0.00 0.00 0.00 97 1018.9
20220814124518 62 288 0.0 0.0 0.00 0.00 0.00 98 1018.9
20220814124018 62 288 0.0 0.0 0.00 0.00 0.00 98 1019.0
20220814123516 62 269 0.0 0.0 0.00 0.00 0.00 98 1019.0
20220814123016 62 262 0.0 0.0 0.00 0.00 0.00 98 1018.7
20220814122516 62 297 0.0 0.0 0.00 0.00 0.00 97 1018.6
20220814122014 62 295 0.0 0.0 0.00 0.00 0.00 98 1018.5
20220814121513 62 269 0.0 0.0 0.00 0.00 0.00 98 1018.5
20220814121013 61 294 0.0 0.0 0.00 0.00 0.00 97 1018.5
20220814120512 61 294 0.0 0.0 0.00 0.00 0.00 98 1018.3
20220814120010 61 346 1.0 1.0 0.00 0.00 0.00 98 1018.3
20220814115509 61 299 0.0 1.0 0.00 0.00 0.00 99 1018.3
20220814115008 61 247 0.0 1.0 0.00 0.00 0.00 99 1018.4
20220814114507 61 245 0.0 0.0 0.00 0.00 0.00 99 1018.5
20220814114006 61 259 0.0 0.0 0.00 0.00 0.00 99 1018.4
20220814113505 61 291 0.0 0.0 0.00 0.00 0.00 99 1018.6
20220814113006 61 274 0.0 0.0 0.00 0.00 0.00 99 1018.4
20220814112505 61 286 0.0 0.0 0.00 0.00 0.00 99 1018.5
20220814112004 61 268 0.0 0.0 0.00 0.00 0.00 99 1018.5
20220814111503 61 279 0.0 0.0 0.00 0.00 0.00 99 1018.4
20220814111003 61 278 0.0 0.0 0.00 0.00 0.00 98 1018.7
20220814110503 61 279 0.0 0.0 0.00 0.00 0.00 98 1018.5
20220814110002 61 282 0.0 0.0 0.00 0.00 0.00 98 1018.4
20220814105501 61 279 0.0 0.0 0.00 0.00 0.00 98 1018.6
20220814105001 61 274 0.0 0.0 0.00 0.00 0.00 98 1018.4
20220814104500 61 269 0.0 0.0 0.00 0.00 0.00 98 1018.6
20220814103958 61 257 0.0 0.0 0.00 0.00 0.00 98 1018.5
20220814103456 61 252 0.0 0.0 0.00 0.00 0.00 98 1018.6
20220814102956 61 274 0.0 0.0 0.00 0.00 0.00 98 1018.3
20220814102455 61 273 0.0 0.0 0.00 0.00 0.00 98 1018.6
20220814101954 61 257 0.0 0.0 0.00 0.00 0.00 98 1018.6
20220814101454 61 260 0.0 0.0 0.00 0.00 0.00 98 1018.9
20220814100954 61 279 0.0 0.0 0.00 0.00 0.00 97 1018.9
20220814100452 61 236 0.0 0.0 0.00 0.00 0.00 97 1019.0
20220814095953 62 223 0.0 0.0 0.00 0.00 0.00 96 1018.7
20220814095452 62 255 0.0 0.0 0.00 0.00 0.00 96 1018.7
20220814094950 62 278 0.0 0.0 0.00 0.00 0.00 96 1018.9
20220814094450 62 279 0.0 0.0 0.00 0.00 0.00 96 1018.6
20220814093949 62 281 0.0 0.0 0.00 0.00 0.00 95 1018.7
20220814093448 63 246 0.0 0.0 0.00 0.00 0.00 94 1018.9
20220814092947 62 245 3.0 3.0 0.00 0.00 0.00 92 1018.3
20220814092446 62 309 0.0 1.0 0.00 0.00 0.00 94 1018.7
20220814091946 62 330 0.0 0.0 0.00 0.00 0.00 95 1018.7
20220814091445 61 332 0.0 0.0 0.00 0.00 0.00 95 1018.6
20220814090945 61 334 0.0 1.0 0.00 0.00 0.00 95 1018.3
20220814090443 61 335 0.0 0.0 0.00 0.00 0.00 95 1018.5
20220814085943 61 353 1.0 1.0 0.00 0.00 0.00 95 1018.5
20220814085443 61 343 0.0 1.0 0.00 0.00 0.00 95 1018.4
20220814084942 61 344 1.0 1.0 0.00 0.00 0.00 95 1018.5
20220814084441 61 336 0.0 0.0 0.00 0.00 0.00 95 1018.5
20220814083941 61 336 0.0 0.0 0.00 0.00 0.00 96 1018.5
20220814083440 61 337 0.0 1.0 0.00 0.00 0.00 96 1018.5
20220814082939 61 318 0.0 0.0 0.00 0.00 0.00 96 1018.6
20220814082438 61 316 0.0 0.0 0.00 0.00 0.00 96 1018.5
20220814081937 61 320 0.0 0.0 0.00 0.00 0.00 96 1018.6
20220814081436 61 315 0.0 0.0 0.00 0.00 0.00 96 1019.0
20220814080935 61 343 1.0 1.0 0.00 0.00 0.00 96 1018.7
20220814080434 61 312 0.0 0.0 0.00 0.00 0.00 96 1018.7
20220814075934 61 333 0.0 1.0 0.00 0.00 0.00 96 1018.7
20220814075433 61 293 0.0 0.0 0.00 0.00 0.00 96 1018.7
20220814074933 61 339 0.0 1.0 0.00 0.00 0.00 96 1018.9
20220814074433 61 273 0.0 0.0 0.00 0.00 0.00 95 1018.6